CW0856 Weather Reports


time (UTC)temp
F
wind
direction
speed
knots
gust
knots
rain 1hr
in
rain 24hr
in
rain mn
in
humidity
%
barometer
mb
20190425052324 71 208 0.0 0.0 0.00 0.04 0.00 95 1007.6
20190425025323 72 140 0.0 0.9 0.03 0.04 0.04 93 1007.0
20190425022323 73 223 0.0 0.9 0.02 0.02 0.02 92 1008.6
20190425012323 73 128 0.0 1.7 0.00 0.00 0.00 89 1007.1
20190425002323 74 128 0.0 1.7 0.00 0.00 0.00 85 1007.2
20190424235326 75 128 0.0 2.6 0.00 0.00 0.00 84 1007.2
20190424232324 75 130 0.0 3.5 0.00 0.00 0.00 82 1006.7
20190424225323 76 123 0.9 3.5 0.00 0.00 0.00 81 1006.4
20190424222323 76 186 0.0 3.5 0.00 0.00 0.00 81 1006.7
20190424215323 76 125 1.7 5.2 0.00 0.00 0.00 80 1007.1
20190424192324 73 152 0.0 1.7 0.00 0.00 0.00 90 1009.8
20190424182322 72 173 0.0 0.9 0.00 0.00 0.00 91 1010.5
20190424175326 72 173 0.0 1.7 0.00 0.00 0.00 92 1011.1
20190424162322 72 95 0.0 3.5 0.00 0.00 0.00 94 1011.8
20190424155323 71 134 0.9 2.6 0.00 0.00 0.00 95 1011.9
20190424152323 70 138 0.0 1.7 0.00 0.01 0.00 96 1012.2
20190424142323 69 163 0.0 1.7 0.00 0.01 0.00 96 1012.5
20190424132324 67 163 0.0 0.9 0.00 0.01 0.00 96 1012.7
20190424125323 67 163 0.0 1.7 0.00 0.01 0.00 96 1012.3
20190424082325 67 163 0.0 0.0 0.00 0.01 0.00 94 1012.6
20190424075323 67 163 0.0 0.9 0.00 0.01 0.00 93 1012.6
20190424062323 69 163 0.0 0.0 0.00 0.01 0.00 92 1013.3